Location: Peebles
(55.6412°N, 3.1714°W)
Time: 00:52:07
(UTC+01:00)

NOAA 16 DEB - Visible Passes

Search period start: 31 May 2023 00:00
Search period end: 10 June 2023 00:00
Orbit: 823 x 878 km, 98.9° (Epoch: 30 May)

Date Brightness Start Highest point End Pass type
(mag) Time Alt. Az. Time Alt. Az. Time Alt. Az.
31 May ? 00:52:59 10° WSW 00:56:23 16° W 00:59:47 10° NW visible
31 May ? 22:57:16 10° SSE 23:02:55 87° WSW 23:08:33 10° NNW visible
01 Jun ? 00:40:26 10° SW 00:44:24 19° W 00:48:23 10° NW visible
01 Jun ? 22:45:29 10° SSE 22:51:07 80° ENE 22:56:44 10° NNW visible
02 Jun ? 00:28:02 10° SW 00:32:26 23° W 00:36:50 10° NW visible
02 Jun ? 22:33:45 10° SSE 22:39:20 68° ENE 22:44:53 10° NNW visible
03 Jun ? 00:15:44 10° SSW 00:20:29 28° W 00:25:14 10° NNW visible
04 Jun ? 00:03:31 10° SSW 00:08:32 33° W 00:13:33 10° NNW visible
04 Jun ? 23:51:22 10° SSW 23:56:37 39° W 00:01:49 10° NNW visible
05 Jun ? 23:39:16 10° S 23:44:41 47° W 23:50:03 10° NNW visible
06 Jun ? 23:27:16 10° S 23:32:46 56° WSW 23:38:14 10° NNW visible
07 Jun ? 01:12:43 10° WSW 01:14:41 12° W 01:16:38 10° WNW visible
07 Jun ? 23:15:17 10° S 23:20:51 68° WSW 23:26:24 10° NNW visible
08 Jun ? 00:59:37 10° WSW 01:02:36 14° W 01:05:34 10° NW visible
08 Jun ? 23:03:21 10° SSE 23:08:57 80° WSW 23:14:31 10° NNW visible
09 Jun ? 00:46:52 10° SW 00:50:31 18° W 00:54:09 10° NW visible
09 Jun ? 22:51:28 10° SSE 22:57:04 86° ENE 23:02:37 10° NNW visible
